FW8186 Weather Reports


Display with metric or nautical units.
time (UTC)temp
F
wind
direction
speed
MPH
gust
MPH
rain 1hr
in
rain 24hr
in
rain mn
in
humidity
%
barometer
mb
20260506044503 49 4 9.0 12.0 0.00 0.00 0.00 70 1056.9
20260506043003 49 12 10.0 13.0 0.00 0.00 0.00 71 1056.9
20260506041503 49 327 10.0 17.0 0.00 0.00 0.00 73 1056.9
20260506040003 49 39 16.0 16.0 0.00 0.00 0.00 74 1056.9
20260506033004 49 45 11.0 14.0 0.00 0.00 0.00 75 1056.2
20260506031502 49 55 13.0 20.0 0.00 0.00 0.00 77 1055.9
20260506030003 49 21 14.0 22.0 0.00 0.00 0.00 79 1055.5
20260506024503 49 20 12.0 21.0 0.00 0.00 0.00 80 1055.9
20260506023003 49 14 14.0 18.0 0.00 0.00 0.00 80 1055.5
20260506021503 49 37 14.0 20.0 0.00 0.00 0.00 78 1055.9
20260506020502 50 38 9.0 15.0 0.00 0.00 0.00 77 1055.5
20260506015003 50 57 14.0 15.0 0.00 0.00 0.00 76 1055.2
20260506014002 50 39 14.0 17.0 0.00 0.00 0.00 75 1054.9
20260506012503 50 32 9.0 14.0 0.00 0.00 0.00 75 1054.9
20260506011003 50 25 13.0 14.0 0.00 0.00 0.00 75 1054.9
20260506005502 50 12 13.0 16.0 0.00 0.00 0.00 75 1054.2
20260506002503 51 12 9.0 15.0 0.00 0.00 0.00 74 1053.8
20260506001002 51 18 10.0 15.0 0.00 0.00 0.00 72 1053.8
20260505234004 52 46 16.0 22.0 0.00 0.00 0.00 70 1053.5
20260505232503 52 43 10.0 18.0 0.00 0.00 0.00 70 1053.8
20260505231003 52 22 13.0 16.0 0.00 0.00 0.00 70 1053.5
20260505225503 52 9 14.0 23.0 0.00 0.00 0.00 71 1053.2
20260505224502 52 343 10.0 18.0 0.00 0.00 0.00 71 1053.5
20260505223003 53 338 10.0 14.0 0.00 0.00 0.00 70 1053.5
20260505221502 53 23 10.0 22.0 0.00 0.00 0.00 70 1053.2
20260505220003 54 23 9.0 18.0 0.00 0.00 0.00 69 1053.2
20260505214503 54 9 13.0 17.0 0.00 0.00 0.00 69 1053.2
20260505213003 54 46 15.0 16.0 0.00 0.00 0.00 70 1053.2
20260505211503 54 352 22.0 22.0 0.00 0.00 0.00 70 1052.5
20260505204503 55 14 14.0 20.0 0.00 0.00 0.00 70 1052.5
20260505201503 54 58 10.0 22.0 0.00 0.00 0.00 73 1052.2
20260505200004 54 1 22.0 22.0 0.00 0.00 0.00 75 1052.2
20260505194503 54 10 18.0 23.0 0.00 0.00 0.00 77 1052.2
20260505193003 54 11 17.0 21.0 0.00 0.00 0.00 76 1052.2
20260505191502 55 359 17.0 22.0 0.00 0.00 0.00 76 1051.8
20260505190004 56 16 11.0 21.0 0.00 0.00 0.00 76 1051.8
20260505184503 56 11 14.0 22.0 0.00 0.00 0.00 75 1051.8
20260505183003 56 21 15.0 22.0 0.00 0.00 0.00 76 1051.5
20260505181503 56 20 15.0 20.0 0.00 0.00 0.00 77 1051.1
20260505180502 56 7 12.0 21.0 0.00 0.00 0.00 77 1051.1
20260505175002 56 341 18.0 21.0 0.00 0.00 0.00 78 1050.8
20260505173503 57 340 15.0 21.0 0.00 0.00 0.00 77 1050.8
20260505172003 57 21 15.0 19.0 0.00 0.00 0.00 77 1050.5
20260505170503 57 11 13.0 22.0 0.00 0.00 0.00 79 1050.1
20260505165003 58 25 15.0 23.0 0.00 0.00 0.00 79 1050.1
20260505163502 58 7 15.0 20.0 0.00 0.00 0.00 79 1049.4
20260505162003 60 0 14.0 21.0 0.00 0.00 0.00 78 1048.8
20260505161002 61 43 16.0 23.0 0.00 0.00 0.00 79 1048.1
20260505152503 69 14 19.0 19.0 0.00 0.00 0.00 79 1046.7
20260505151003 69 26 11.0 16.0 0.00 0.00 0.00 80 1046.4
20260505122503 71 336 2.0 4.0 0.00 0.00 0.00 71 1044.4
20260505121003 71 23 4.0 7.0 0.00 0.00 0.00 72 1044.0
20260505115503 71 227 6.0 8.0 0.00 0.00 0.00 71 1043.7
20260505114003 71 185 4.0 10.0 0.00 0.00 0.00 70 1043.0
20260505112503 71 202 7.0 10.0 0.00 0.00 0.00 70 1042.7
20260505111003 72 211 7.0 13.0 0.00 0.00 0.00 70 1042.7
20260505101003 72 199 12.0 17.0 0.00 0.00 0.00 69 1042.3
20260505095503 73 203 8.0 17.0 0.00 0.00 0.00 69 1042.3
20260505094003 73 197 16.0 18.0 0.00 0.00 0.00 68 1042.3
20260505091003 73 184 11.0 19.0 0.00 0.00 0.00 68 1042.3
20260505085503 73 205 15.0 21.0 0.00 0.00 0.00 68 1042.7
20260505084003 73 184 14.0 20.0 0.00 0.00 0.00 68 1042.7
20260505082503 73 190 13.0 20.0 0.00 0.00 0.00 68 1042.7
20260505081003 73 206 11.0 18.0 0.00 0.00 0.00 69 1042.7
20260505075503 73 197 10.0 17.0 0.00 0.00 0.00 69 1043.0
20260505074003 73 183 14.0 20.0 0.00 0.00 0.00 69 1043.0
20260505072503 73 211 15.0 23.0 0.00 0.00 0.00 69 1043.3
20260505071003 73 179 18.0 19.0 0.00 0.00 0.00 69 1043.3
20260505065503 73 205 17.0 23.0 0.00 0.00 0.00 69 1043.7
20260505064502 73 197 11.0 18.0 0.00 0.00 0.00 69 1043.7
20260505063003 73 203 14.0 25.0 0.00 0.00 0.00 68 1044.0
20260505061503 73 194 17.0 21.0 0.00 0.00 0.00 68 1044.0
20260505060003 73 183 14.0 23.0 0.00 0.00 0.00 67 1044.0